TimeCST,TemperatureF,Dew PointF,Humidity,Sea Level PressureIn,VisibilityMPH,Wind Direction,Wind SpeedMPH,Gust SpeedMPH,PrecipitationIn,Events,Conditions,WindDirDegrees,DateUTC
12:14 AM,6.8,3.2,85,30.50,10.0,Calm,Calm,-,N/A,,Clear,0,2013-11-29 06:14:00
12:34 AM,6.8,3.2,85,30.50,10.0,Calm,Calm,-,N/A,,Clear,0,2013-11-29 06:34:00
12:54 AM,5.0,1.4,85,30.49,10.0,Calm,Calm,-,N/A,,Clear,0,2013-11-29 06:54:00
1:14 AM,5.0,1.4,85,30.49,10.0,Calm,Calm,-,N/A,,Clear,0,2013-11-29 07:14:00
1:34 AM,5.0,1.4,85,30.49,10.0,Calm,Calm,-,N/A,,Clear,0,2013-11-29 07:34:00
1:54 AM,5.0,1.4,85,30.50,10.0,Calm,Calm,-,N/A,,Clear,0,2013-11-29 07:54:00
2:14 AM,5.0,1.4,85,30.50,10.0,Calm,Calm,-,N/A,,Clear,0,2013-11-29 08:14:00
2:34 AM,5.0,1.4,85,30.50,10.0,Calm,Calm,-,N/A,,Clear,0,2013-11-29 08:34:00
2:54 AM,5.0,1.4,85,30.50,10.0,Calm,Calm,-,N/A,,Clear,0,2013-11-29 08:54:00
3:14 AM,5.0,1.4,85,30.50,10.0,Calm,Calm,-,N/A,,Clear,0,2013-11-29 09:14:00
3:34 AM,5.0,1.4,85,30.49,10.0,Calm,Calm,-,N/A,,Clear,0,2013-11-29 09:34:00
3:54 AM,5.0,1.4,85,30.50,10.0,Calm,Calm,-,N/A,,Clear,0,2013-11-29 09:54:00
4:14 AM,6.8,3.2,85,30.49,10.0,Calm,Calm,-,N/A,,Clear,0,2013-11-29 10:14:00
4:34 AM,8.6,3.2,79,30.50,10.0,Calm,Calm,-,N/A,,Clear,0,2013-11-29 10:34:00
4:54 AM,10.4,5.0,79,30.49,10.0,Calm,Calm,-,N/A,,Clear,0,2013-11-29 10:54:00
5:14 AM,10.4,5.0,79,30.49,10.0,Calm,Calm,-,N/A,,Clear,0,2013-11-29 11:14:00
5:34 AM,12.2,8.6,85,30.49,10.0,Calm,Calm,-,N/A,,Clear,0,2013-11-29 11:34:00
5:54 AM,12.2,8.6,85,30.49,10.0,Calm,Calm,-,N/A,,Clear,0,2013-11-29 11:54:00
6:14 AM,12.2,8.6,85,30.49,10.0,Calm,Calm,-,N/A,,Clear,0,2013-11-29 12:14:00
6:34 AM,12.2,8.6,85,30.49,10.0,Calm,Calm,-,N/A,,Clear,0,2013-11-29 12:34:00
6:54 AM,12.2,8.6,85,30.49,10.0,ESE,3.5,-,N/A,,Clear,110,2013-11-29 12:54:00
7:14 AM,14.0,10.4,86,30.48,10.0,Calm,Calm,-,N/A,,Clear,0,2013-11-29 13:14:00
7:34 AM,14.0,10.4,86,30.48,10.0,Calm,Calm,-,N/A,,Clear,0,2013-11-29 13:34:00
7:54 AM,14.0,10.4,86,30.48,10.0,SE,3.5,-,N/A,,Clear,140,2013-11-29 13:54:00
8:14 AM,14.0,10.4,86,30.48,10.0,ESE,3.5,-,N/A,,Clear,120,2013-11-29 14:14:00
8:34 AM,15.8,12.2,86,30.49,10.0,SE,4.6,-,N/A,,Clear,130,2013-11-29 14:34:00
8:54 AM,17.6,12.2,79,30.48,10.0,SE,3.5,-,N/A,,Clear,140,2013-11-29 14:54:00
9:14 AM,17.6,12.2,79,30.47,10.0,SSE,4.6,-,N/A,,Clear,150,2013-11-29 15:14:00
9:34 AM,17.6,12.2,79,30.47,10.0,SSE,5.8,-,N/A,,Scattered Clouds,150,2013-11-29 15:34:00
9:54 AM,19.4,14.0,80,30.46,10.0,SE,4.6,-,N/A,,Overcast,140,2013-11-29 15:54:00
10:14 AM,19.4,14.0,80,30.47,10.0,SSE,4.6,-,N/A,,Overcast,150,2013-11-29 16:14:00
10:34 AM,21.2,14.0,74,30.45,10.0,SSE,6.9,-,N/A,,Overcast,160,2013-11-29 16:34:00
10:54 AM,23.0,14.0,68,30.44,10.0,SSE,9.2,-,N/A,,Mostly Cloudy,150,2013-11-29 16:54:00
11:14 AM,23.0,14.0,68,30.43,10.0,South,10.4,-,N/A,,Clear,170,2013-11-29 17:14:00
11:34 AM,26.6,14.0,59,30.42,10.0,SSE,8.1,-,N/A,,Clear,150,2013-11-29 17:34:00
11:54 AM,26.6,15.8,64,30.40,10.0,South,9.2,-,N/A,,Clear,180,2013-11-29 17:54:00
12:14 PM,26.6,15.8,64,30.39,10.0,South,12.7,-,N/A,,Clear,170,2013-11-29 18:14:00
12:34 PM,26.6,14.0,59,30.37,10.0,South,13.8,17.3,N/A,,Clear,170,2013-11-29 18:34:00
12:54 PM,26.6,14.0,59,30.36,10.0,South,10.4,-,N/A,,Clear,190,2013-11-29 18:54:00
1:14 PM,26.6,14.0,59,30.35,10.0,South,11.5,-,N/A,,Clear,170,2013-11-29 19:14:00
1:34 PM,26.6,14.0,59,30.34,10.0,South,12.7,-,N/A,,Clear,170,2013-11-29 19:34:00
1:54 PM,26.6,14.0,59,30.32,10.0,South,11.5,16.1,N/A,,Clear,170,2013-11-29 19:54:00
2:14 PM,28.4,14.0,55,30.32,10.0,SSE,8.1,-,N/A,,Clear,150,2013-11-29 20:14:00
2:34 PM,26.6,14.0,59,30.31,10.0,South,11.5,-,N/A,,Clear,180,2013-11-29 20:34:00
2:54 PM,26.6,14.0,59,30.31,10.0,SSE,6.9,-,N/A,,Clear,150,2013-11-29 20:54:00
3:14 PM,26.6,14.0,59,30.29,10.0,SSE,5.8,-,N/A,,Clear,150,2013-11-29 21:14:00
3:34 PM,26.6,14.0,59,30.28,10.0,SSE,8.1,-,N/A,,Clear,150,2013-11-29 21:34:00
3:54 PM,26.6,14.0,59,30.27,10.0,SSE,8.1,-,N/A,,Clear,150,2013-11-29 21:54:00
4:14 PM,26.6,15.8,64,30.26,10.0,SSE,5.8,-,N/A,,Clear,150,2013-11-29 22:14:00
4:34 PM,26.6,17.6,69,30.24,7.0,SE,6.9,-,N/A,,Clear,140,2013-11-29 22:34:00
4:54 PM,26.6,15.8,64,30.24,10.0,SE,5.8,-,N/A,,Clear,130,2013-11-29 22:54:00
5:14 PM,26.6,17.6,69,30.22,10.0,SE,5.8,-,N/A,,Mostly Cloudy,130,2013-11-29 23:14:00
5:34 PM,26.6,17.6,69,30.21,10.0,SE,6.9,-,N/A,,Overcast,130,2013-11-29 23:34:00
5:54 PM,26.6,17.6,69,30.20,10.0,SE,5.8,-,N/A,,Overcast,140,2013-11-29 23:54:00
6:14 PM,26.6,15.8,64,30.19,10.0,SE,5.8,-,N/A,,Overcast,140,2013-11-30 00:14:00
6:34 PM,28.4,17.6,64,30.18,10.0,SSE,6.9,-,N/A,,Overcast,150,2013-11-30 00:34:00
6:54 PM,30.2,17.6,60,30.18,10.0,SSE,9.2,-,N/A,,Overcast,160,2013-11-30 00:54:00
7:14 PM,30.2,17.6,60,30.18,10.0,South,11.5,17.3,N/A,,Overcast,170,2013-11-30 01:14:00
7:34 PM,30.2,17.6,60,30.18,10.0,South,12.7,18.4,N/A,,Overcast,180,2013-11-30 01:34:00
7:54 PM,30.2,17.6,60,30.18,10.0,South,10.4,17.3,N/A,,Overcast,180,2013-11-30 01:54:00
8:14 PM,32.0,19.4,60,30.18,10.0,South,12.7,21.9,N/A,,Overcast,190,2013-11-30 02:14:00
8:34 PM,32.0,19.4,60,30.18,10.0,South,12.7,17.3,N/A,,Overcast,190,2013-11-30 02:34:00
8:53 PM,32.0,19.4,60,30.17,10.0,South,13.8,-,N/A,,Overcast,180,2013-11-30 02:53:00
9:14 PM,30.2,19.4,64,30.17,10.0,South,13.8,17.3,N/A,,Overcast,190,2013-11-30 03:14:00
9:34 PM,30.2,19.4,64,30.17,10.0,South,11.5,-,N/A,,Overcast,190,2013-11-30 03:34:00
9:54 PM,30.2,19.4,64,30.17,10.0,South,10.4,16.1,N/A,,Overcast,180,2013-11-30 03:54:00
10:14 PM,30.2,19.4,64,30.16,10.0,South,6.9,-,N/A,,Overcast,170,2013-11-30 04:14:00
10:34 PM,30.2,19.4,64,30.15,10.0,South,8.1,-,N/A,,Overcast,170,2013-11-30 04:34:00
10:54 PM,30.2,19.4,64,30.15,10.0,South,6.9,-,N/A,,Overcast,170,2013-11-30 04:54:00
11:14 PM,30.2,19.4,64,30.14,10.0,South,8.1,-,N/A,,Overcast,180,2013-11-30 05:14:00
11:34 PM,30.2,19.4,64,30.14,10.0,South,6.9,-,N/A,,Overcast,190,2013-11-30 05:34:00
11:54 PM,30.2,21.2,69,30.13,10.0,South,6.9,-,N/A,,Overcast,180,2013-11-30 05:54:00